Tracking 22440 objects as of 27-Feb-2021
HD Live streaming from Space Station
objects crossing your sky now

SL-14 R/B

Track SL-14 R/B now!
10-day predictions


NORAD ID: 16144
Int'l Code: 1985-094G
Perigee: 1,422.1 km
Apogee: 1,480.5 km
Inclination: 82.6 °
Period: 114.8 minutes
Semi major axis: 7822 km
RCS: 6.98 m2 (large)
Launch date: October 9, 1985
Source: Commonwealth of Independent States (former USSR) (CIS)
Launch site: PLESETSK MISSILE AND SPACE COMPLEX (PKMTR)

Note: This is a ROCKET BODY
aabbcc
Your satellite tracking list
Your tracking list is empty




NASA's NSSDC Master Catalog

Two Line Element Set (TLE):
1 16144U 85094G   21057.76858634 -.00000003  00000-0 -84215-4 0  9993
2 16144  82.6115 187.3221 0037324 106.2528  10.9665 12.54871967620878
Source of the keplerian elements: AFSPC